sat.trackr.live / text

‹ back to catalog

STARLINK-37120

NORAD 68211 · 2026-053E

PAYLOAD ACTIVE UNKNOWN

§ Identity

Operator
Country
US
Launch date
2026-03-17
Launch site
AFWTR
Launch vehicle
Mass (kg)
RCS (m²)

Purposes: comms

External: N2YO · Heavens-Above · Gunter

§ Orbital elements

Epoch: 2026-09-18T23:00:33.744960Z

Period
93.91 min
Inclination
97.2851°
Eccentricity
0.0002415
Mean motion
15.33454453 rev/d
Perigee alt
463.9 km
Apogee alt
467.2 km
Semi-major
6,843.7 km
B*
4.5287e-4
RAAN
135.7035°
Arg perigee
95.4941°
Mean anomaly
264.6577°
Rev number
2,981

§ Raw data

STARLINK-371201 68211U 26053E   26261.95872390  .00014579  00000+0  45287-3 0  99982 68211  97.2851 135.7035 0002415  95.4941 264.6577 15.33454453 29814

JSON: /api/v1/satellites/68211 · /tle

For live sub-satellite position, see the globe view (requires WebGL).

§ Visibility from observer

Set your observer location to see the next 7 days of passes ≥ 10°. The values pass through the URL so the page stays shareable.

No JS? Fill the form by hand. The geolocation button needs JavaScript.